Time,TemperatureF,DewpointF,PressureIn,WindDirection,WindDirectionDegrees,WindSpeedMPH,WindSpeedGustMPH,Humidity,HourlyPrecipIn,Conditions,Clouds,dailyrainin,SoftwareType,DateUTC
2013-04-30 00:02:00,71.4,47.7,28.87,NE,45,0.0,0.0,43,0.00,,,0.00,open2300-1.11,2013-04-29 21:02:00,
2013-04-30 00:07:00,71.2,48.1,28.87,NE,45,0.0,0.0,44,0.00,,,0.00,open2300-1.11,2013-04-29 21:07:00,
2013-04-30 00:12:00,71.1,47.3,28.87,NE,45,0.0,0.0,43,0.00,,,0.00,open2300-1.11,2013-04-29 21:12:00,
2013-04-30 00:22:00,70.9,47.8,28.87,NE,45,0.0,0.0,44,0.00,,,0.00,open2300-1.11,2013-04-29 21:22:00,
2013-04-30 00:29:00,70.7,47.6,28.87,NE,45,0.0,0.0,44,0.00,,,0.00,open2300-1.11,2013-04-29 21:29:00,
2013-04-30 00:37:00,70.5,47.4,28.88,NE,45,0.0,0.0,44,0.00,,,0.00,open2300-1.11,2013-04-29 21:37:00,
2013-04-30 00:42:00,70.3,47.3,28.88,NE,45,0.0,0.0,44,0.00,,,0.00,open2300-1.11,2013-04-29 21:42:00,
2013-04-30 00:47:00,70.3,47.3,28.88,NE,45,0.0,0.0,44,0.00,,,0.00,open2300-1.11,2013-04-29 21:47:00,
2013-04-30 00:52:00,70.2,47.1,28.88,NE,45,0.0,0.0,44,0.00,,,0.00,open2300-1.11,2013-04-29 21:52:00,
2013-04-30 00:59:00,70.2,47.1,28.88,NE,45,0.0,0.0,44,0.00,,,0.00,open2300-1.11,2013-04-29 21:59:00,
2013-04-30 01:07:00,70.0,47.0,28.88,NE,45,0.0,0.0,44,0.00,,,0.00,open2300-1.11,2013-04-29 22:07:00,
2013-04-30 01:12:00,69.8,46.2,28.88,NE,45,0.0,0.0,43,0.00,,,0.00,open2300-1.11,2013-04-29 22:12:00,
2013-04-30 01:22:00,69.6,45.5,28.88,NE,45,0.0,0.0,42,0.00,,,0.00,open2300-1.11,2013-04-29 22:22:00,
2013-04-30 01:28:00,69.6,44.8,28.88,NE,45,0.0,0.0,41,0.00,,,0.00,open2300-1.11,2013-04-29 22:28:00,
2013-04-30 01:37:00,69.6,44.8,28.88,NE,45,0.0,0.0,41,0.00,,,0.00,open2300-1.11,2013-04-29 22:37:00,
2013-04-30 02:07:00,69.1,43.8,28.87,NE,45,0.0,0.0,40,0.00,,,0.00,open2300-1.11,2013-04-29 23:07:00,
2013-04-30 02:12:00,68.9,43.6,28.87,NE,45,0.0,0.0,40,0.00,,,0.00,open2300-1.11,2013-04-29 23:12:00,
2013-04-30 02:22:00,68.7,43.5,28.87,NE,45,0.0,0.0,40,0.00,,,0.00,open2300-1.11,2013-04-29 23:22:00,
2013-04-30 02:27:00,68.7,43.5,28.87,NE,45,0.0,0.0,40,0.00,,,0.00,open2300-1.11,2013-04-29 23:27:00,
2013-04-30 02:33:00,68.7,43.5,28.87,NE,45,0.0,0.0,40,0.00,,,0.00,open2300-1.11,2013-04-29 23:33:00,
2013-04-30 02:42:00,68.4,43.7,28.87,NE,45,0.0,0.0,41,0.00,,,0.00,open2300-1.11,2013-04-29 23:42:00,
2013-04-30 02:52:00,68.2,43.6,28.87,NE,45,0.0,0.0,41,0.00,,,0.00,open2300-1.11,2013-04-29 23:52:00,
2013-04-30 03:02:00,68.2,43.6,28.87,NE,45,0.0,0.0,41,0.00,,,0.00,open2300-1.11,2013-04-30 00:02:00,
2013-04-30 03:07:00,68.2,43.6,28.87,NE,45,0.0,0.0,41,0.00,,,0.00,open2300-1.11,2013-04-30 00:07:00,
2013-04-30 03:14:00,68.2,43.6,28.87,NE,45,0.0,0.0,41,0.00,,,0.00,open2300-1.11,2013-04-30 00:14:00,
2013-04-30 03:22:00,68.0,43.4,28.86,NE,45,0.0,0.0,41,0.00,,,0.00,open2300-1.11,2013-04-30 00:22:00,
2013-04-30 03:27:00,67.8,43.2,28.86,NE,45,0.0,0.0,41,0.00,,,0.00,open2300-1.11,2013-04-30 00:27:00,
2013-04-30 03:32:00,67.8,43.2,28.86,NE,45,0.0,0.0,41,0.00,,,0.00,open2300-1.11,2013-04-30 00:32:00,
2013-04-30 03:42:00,67.8,43.2,28.86,NE,45,0.0,0.0,41,0.00,,,0.00,open2300-1.11,2013-04-30 00:42:00,
2013-04-30 03:47:00,67.8,43.2,28.86,NE,45,0.0,0.0,41,0.00,,,0.00,open2300-1.11,2013-04-30 00:47:00,
2013-04-30 03:52:00,67.8,43.2,28.86,NE,45,0.0,0.0,41,0.00,,,0.00,open2300-1.11,2013-04-30 00:52:00,
2013-04-30 04:02:00,67.8,43.2,28.86,NE,45,0.0,0.0,41,0.00,,,0.00,open2300-1.11,2013-04-30 01:02:00,
2013-04-30 04:07:00,67.8,42.6,28.86,NE,45,0.0,0.0,40,0.00,,,0.00,open2300-1.11,2013-04-30 01:07:00,
2013-04-30 04:12:00,67.8,41.9,28.85,NE,45,0.0,0.0,39,0.00,,,0.00,open2300-1.11,2013-04-30 01:12:00,
2013-04-30 04:17:00,67.8,41.9,28.86,NE,45,0.0,0.0,39,0.00,,,0.00,open2300-1.11,2013-04-30 01:17:00,
2013-04-30 04:22:00,67.8,41.9,28.86,NE,45,0.0,0.0,39,0.00,,,0.00,open2300-1.11,2013-04-30 01:22:00,
2013-04-30 04:32:00,67.8,41.9,28.85,NE,45,0.0,0.0,39,0.00,,,0.00,open2300-1.11,2013-04-30 01:32:00,
2013-04-30 04:37:00,67.8,41.9,28.85,NE,45,0.0,0.0,39,0.00,,,0.00,open2300-1.11,2013-04-30 01:37:00,
2013-04-30 04:42:00,67.6,41.0,28.85,NE,45,0.0,0.0,38,0.00,,,0.00,open2300-1.11,2013-04-30 01:42:00,
2013-04-30 04:47:00,67.6,41.0,28.85,NE,45,0.0,0.0,38,0.00,,,0.00,open2300-1.11,2013-04-30 01:47:00,
2013-04-30 04:52:00,67.6,41.0,28.85,NE,45,0.0,0.0,38,0.00,,,0.00,open2300-1.11,2013-04-30 01:52:00,
2013-04-30 05:02:00,67.6,41.0,28.86,NE,45,0.0,0.0,38,0.00,,,0.00,open2300-1.11,2013-04-30 02:02:00,
2013-04-30 05:07:00,67.6,41.0,28.86,NE,45,0.0,0.0,38,0.00,,,0.00,open2300-1.11,2013-04-30 02:07:00,
2013-04-30 05:12:00,67.6,41.0,28.86,NE,45,0.0,0.0,38,0.00,,,0.00,open2300-1.11,2013-04-30 02:12:00,
2013-04-30 05:22:00,67.5,40.8,28.86,NE,45,0.0,0.0,38,0.00,,,0.00,open2300-1.11,2013-04-30 02:22:00,
2013-04-30 05:32:00,67.3,40.0,28.86,NE,45,0.0,0.0,37,0.00,,,0.00,open2300-1.11,2013-04-30 02:32:00,
2013-04-30 05:42:00,67.3,40.0,28.86,NE,45,0.0,0.0,37,0.00,,,0.00,open2300-1.11,2013-04-30 02:42:00,
2013-04-30 05:48:00,67.1,39.8,28.85,NE,45,0.0,0.0,37,0.00,,,0.00,open2300-1.11,2013-04-30 02:48:00,
2013-04-30 05:57:00,67.1,39.8,28.86,NE,45,0.0,0.0,37,0.00,,,0.00,open2300-1.11,2013-04-30 02:57:00,
2013-04-30 06:07:00,66.9,40.4,28.86,NE,45,0.0,0.0,38,0.00,,,0.00,open2300-1.11,2013-04-30 03:07:00,
2013-04-30 06:17:00,66.9,40.4,28.86,NE,45,0.0,0.0,38,0.00,,,0.00,open2300-1.11,2013-04-30 03:17:00,
2013-04-30 06:32:00,66.9,41.1,28.86,NE,45,0.0,0.0,39,0.00,,,0.00,open2300-1.11,2013-04-30 03:32:00,
2013-04-30 06:42:00,66.9,41.1,28.87,NE,45,0.0,0.0,39,0.00,,,0.00,open2300-1.11,2013-04-30 03:42:00,
2013-04-30 06:52:00,66.9,41.1,28.87,NE,45,0.0,0.0,39,0.00,,,0.00,open2300-1.11,2013-04-30 03:52:00,
2013-04-30 06:57:00,67.1,41.2,28.87,NE,45,0.0,0.0,39,0.00,,,0.00,open2300-1.11,2013-04-30 03:57:00,
2013-04-30 07:02:00,67.3,41.4,28.87,NE,45,0.0,0.0,39,0.00,,,0.00,open2300-1.11,2013-04-30 04:02:00,
2013-04-30 07:07:00,67.3,41.4,28.87,NE,45,0.0,0.0,39,0.00,,,0.00,open2300-1.11,2013-04-30 04:07:00,
2013-04-30 07:12:00,67.5,41.6,28.87,NE,45,0.0,0.0,39,0.00,,,0.00,open2300-1.11,2013-04-30 04:12:00,
2013-04-30 07:17:00,67.6,41.7,28.87,NNE,22,0.0,0.0,39,0.00,,,0.00,open2300-1.11,2013-04-30 04:17:00,
2013-04-30 07:22:00,67.6,41.7,28.88,NNE,22,0.0,0.0,39,0.00,,,0.00,open2300-1.11,2013-04-30 04:22:00,
2013-04-30 07:32:00,67.8,41.9,28.87,NNE,22,0.0,0.0,39,0.00,,,0.00,open2300-1.11,2013-04-30 04:32:00,
2013-04-30 07:37:00,68.2,42.2,28.88,NNE,22,0.0,0.0,39,0.00,,,0.00,open2300-1.11,2013-04-30 04:37:00,
2013-04-30 07:47:00,68.5,41.8,28.88,NE,45,0.0,0.0,38,0.00,,,0.00,open2300-1.11,2013-04-30 04:47:00,
2013-04-30 07:52:00,68.7,42.0,28.88,NE,45,0.0,0.0,38,0.00,,,0.00,open2300-1.11,2013-04-30 04:52:00,
2013-04-30 07:57:00,68.7,43.5,28.88,NE,45,0.0,0.0,40,0.00,,,0.00,open2300-1.11,2013-04-30 04:57:00,
2013-04-30 08:02:00,68.7,43.5,28.88,NE,45,0.0,0.0,40,0.00,,,0.00,open2300-1.11,2013-04-30 05:02:00,
2013-04-30 08:07:00,68.7,43.5,28.88,NE,45,0.0,0.0,40,0.00,,,0.00,open2300-1.11,2013-04-30 05:07:00,
2013-04-30 08:13:00,68.7,43.5,28.87,NE,45,0.0,0.0,40,0.00,,,0.00,open2300-1.11,2013-04-30 05:13:00,
2013-04-30 08:22:00,69.1,43.8,28.88,NE,45,0.0,0.0,40,0.00,,,0.00,open2300-1.11,2013-04-30 05:22:00,
2013-04-30 08:27:00,69.6,44.3,28.88,North,0,0.0,0.0,40,0.00,,,0.00,open2300-1.11,2013-04-30 05:27:00,
2013-04-30 08:37:00,70.2,44.0,28.88,NE,45,0.0,0.0,39,0.00,,,0.00,open2300-1.11,2013-04-30 05:37:00,
2013-04-30 08:47:00,70.5,44.3,28.88,NE,45,0.0,0.0,39,0.00,,,0.00,open2300-1.11,2013-04-30 05:47:00,
2013-04-30 08:52:00,70.9,44.7,28.88,NE,45,0.0,0.0,39,0.00,,,0.00,open2300-1.11,2013-04-30 05:52:00,
2013-04-30 08:57:00,71.2,45.0,28.88,NNE,22,0.0,0.0,39,0.00,,,0.00,open2300-1.11,2013-04-30 05:57:00,
2013-04-30 09:02:00,71.2,45.0,28.87,NNE,22,0.0,0.0,39,0.00,,,0.00,open2300-1.11,2013-04-30 06:02:00,
2013-04-30 09:12:00,71.8,45.5,28.87,NNE,22,0.0,0.0,39,0.00,,,0.00,open2300-1.11,2013-04-30 06:12:00,
2013-04-30 09:22:00,72.0,45.6,28.88,NNE,22,0.0,0.0,39,0.00,,,0.00,open2300-1.11,2013-04-30 06:22:00,
2013-04-30 09:32:00,72.5,46.1,28.88,NNE,22,0.0,0.0,39,0.00,,,0.00,open2300-1.11,2013-04-30 06:32:00,
2013-04-30 09:37:00,72.7,45.5,28.87,NE,45,1.3,1.3,38,0.00,,,0.00,open2300-1.11,2013-04-30 06:37:00,
2013-04-30 09:42:00,73.2,45.2,28.87,NE,45,0.0,1.3,37,0.00,,,0.00,open2300-1.11,2013-04-30 06:42:00,
2013-04-30 09:47:00,73.6,45.5,28.88,NNE,22,0.0,0.0,37,0.00,,,0.00,open2300-1.11,2013-04-30 06:47:00,
2013-04-30 09:52:00,73.9,45.9,28.87,NE,45,0.0,0.0,37,0.00,,,0.00,open2300-1.11,2013-04-30 06:52:00,
2013-04-30 09:57:00,74.3,46.2,28.87,NE,45,0.0,2.5,37,0.00,,,0.00,open2300-1.11,2013-04-30 06:57:00,
2013-04-30 10:02:00,74.7,45.8,28.87,NE,45,1.8,1.8,36,0.00,,,0.00,open2300-1.11,2013-04-30 07:02:00,
2013-04-30 10:07:00,74.8,45.9,28.87,NE,45,0.0,1.8,36,0.00,,,0.00,open2300-1.11,2013-04-30 07:07:00,
2013-04-30 10:17:00,75.4,46.4,28.87,NE,45,0.0,0.0,36,0.00,,,0.00,open2300-1.11,2013-04-30 07:17:00,
2013-04-30 10:22:00,75.4,45.7,28.87,NE,45,0.0,0.0,35,0.00,,,0.00,open2300-1.11,2013-04-30 07:22:00,
2013-04-30 10:32:00,75.9,45.4,28.88,NNE,22,0.0,0.0,34,0.00,,,0.00,open2300-1.11,2013-04-30 07:32:00,
2013-04-30 10:42:00,76.3,45.7,28.87,NNE,22,0.0,1.8,34,0.00,,,0.00,open2300-1.11,2013-04-30 07:42:00,
2013-04-30 10:47:00,76.6,45.3,28.87,NNE,22,1.8,1.8,33,0.00,,,0.00,open2300-1.11,2013-04-30 07:47:00,
2013-04-30 10:57:00,76.8,45.5,28.87,NE,45,0.0,0.0,33,0.00,,,0.00,open2300-1.11,2013-04-30 07:57:00,
2013-04-30 11:07:00,77.2,45.8,28.88,NNE,22,0.0,0.0,33,0.00,,,0.00,open2300-1.11,2013-04-30 08:07:00,
2013-04-30 11:17:00,77.5,46.0,28.88,NE,45,5.1,5.1,33,0.00,,,0.00,open2300-1.11,2013-04-30 08:17:00,
2013-04-30 11:22:00,77.7,45.4,28.88,NNE,22,0.0,5.1,32,0.00,,,0.00,open2300-1.11,2013-04-30 08:22:00,
2013-04-30 11:32:00,77.9,45.6,28.88,NE,45,0.0,0.0,32,0.00,,,0.00,open2300-1.11,2013-04-30 08:32:00,
2013-04-30 11:42:00,78.1,45.7,28.88,NE,45,0.0,0.0,32,0.00,,,0.00,open2300-1.11,2013-04-30 08:42:00,
2013-04-30 11:52:00,78.6,46.2,28.88,NE,45,0.0,0.0,32,0.00,,,0.00,open2300-1.11,2013-04-30 08:52:00,
2013-04-30 11:57:00,79.0,46.5,28.88,NE,45,0.0,0.0,32,0.00,,,0.00,open2300-1.11,2013-04-30 08:57:00,
2013-04-30 12:02:00,79.0,46.5,28.88,NNE,22,0.0,0.0,32,0.00,,,0.00,open2300-1.11,2013-04-30 09:02:00,
2013-04-30 12:12:00,79.2,46.7,28.88,NNE,22,0.0,0.0,32,0.00,,,0.00,open2300-1.11,2013-04-30 09:12:00,
2013-04-30 12:17:00,79.3,46.8,28.88,NE,45,0.0,0.0,32,0.00,,,0.00,open2300-1.11,2013-04-30 09:17:00,
2013-04-30 12:22:00,79.3,46.8,28.88,NNE,22,4.9,6.3,32,0.00,,,0.00,open2300-1.11,2013-04-30 09:22:00,
2013-04-30 12:27:00,79.3,47.6,28.88,NE,45,0.0,4.9,33,0.00,,,0.00,open2300-1.11,2013-04-30 09:27:00,
2013-04-30 12:37:00,79.5,47.0,28.88,NNE,22,6.7,6.7,32,0.00,,,0.00,open2300-1.11,2013-04-30 09:37:00,
2013-04-30 12:47:00,79.7,47.1,28.88,NE,45,1.6,4.0,32,0.00,,,0.00,open2300-1.11,2013-04-30 09:47:00,
2013-04-30 12:57:00,80.1,49.0,28.88,NNE,22,0.0,0.0,34,0.00,,,0.00,open2300-1.11,2013-04-30 09:57:00,
2013-04-30 13:07:00,80.4,47.8,28.87,NNE,22,0.0,2.9,32,0.00,,,0.00,open2300-1.11,2013-04-30 10:07:00,
2013-04-30 13:17:00,80.8,48.1,28.87,NE,45,3.1,3.1,32,0.00,,,0.00,open2300-1.11,2013-04-30 10:17:00,
2013-04-30 13:28:00,81.0,48.2,28.87,NNE,22,2.0,6.7,32,0.00,,,0.00,open2300-1.11,2013-04-30 10:28:00,
2013-04-30 13:37:00,81.3,47.8,28.87,NE,45,0.9,1.3,31,0.00,,,0.00,open2300-1.11,2013-04-30 10:37:00,
2013-04-30 13:42:00,82.0,48.3,28.87,NNE,22,3.4,9.6,31,0.00,,,0.00,open2300-1.11,2013-04-30 10:42:00,
2013-04-30 13:47:00,82.2,48.5,28.87,NNE,22,0.0,3.4,31,0.00,,,0.00,open2300-1.11,2013-04-30 10:47:00,
2013-04-30 13:52:00,82.4,48.6,28.87,NW,315,1.6,1.6,31,0.00,,,0.00,open2300-1.11,2013-04-30 10:52:00,
2013-04-30 14:02:00,83.3,49.4,28.86,NNE,22,0.0,0.0,31,0.00,,,0.00,open2300-1.11,2013-04-30 11:02:00,
2013-04-30 14:12:00,83.8,49.9,28.87,North,0,0.0,2.9,31,0.00,,,0.00,open2300-1.11,2013-04-30 11:12:00,
2013-04-30 14:17:00,83.8,49.9,28.86,NE,45,0.0,0.0,31,0.00,,,0.00,open2300-1.11,2013-04-30 11:17:00,
2013-04-30 14:22:00,84.4,49.6,28.86,NNE,22,0.0,5.4,30,0.00,,,0.00,open2300-1.11,2013-04-30 11:22:00,
2013-04-30 14:32:00,84.6,49.8,28.86,NE,45,0.0,1.6,30,0.00,,,0.00,open2300-1.11,2013-04-30 11:32:00,
2013-04-30 14:39:00,84.7,50.0,28.86,NNE,22,2.9,5.1,30,0.00,,,0.00,open2300-1.11,2013-04-30 11:39:00,
2013-04-30 14:47:00,84.6,49.8,28.86,NNE,22,5.8,5.8,30,0.00,,,0.00,open2300-1.11,2013-04-30 11:47:00,
2013-04-30 14:52:00,84.4,50.4,28.86,NNE,22,1.6,5.8,31,0.00,,,0.00,open2300-1.11,2013-04-30 11:52:00,
2013-04-30 15:02:00,84.0,49.3,28.86,NE,45,0.0,1.6,30,0.00,,,0.00,open2300-1.11,2013-04-30 12:02:00,
2013-04-30 15:07:00,84.0,50.1,28.86,NNE,22,4.2,4.2,31,0.00,,,0.00,open2300-1.11,2013-04-30 12:07:00,
2013-04-30 15:12:00,84.0,49.3,28.86,NNE,22,6.9,6.9,30,0.00,,,0.00,open2300-1.11,2013-04-30 12:12:00,
2013-04-30 15:22:00,84.4,49.6,28.86,NE,45,0.0,14.1,30,0.00,,,0.00,open2300-1.11,2013-04-30 12:22:00,
2013-04-30 15:27:00,84.7,50.0,28.86,NE,45,2.5,2.5,30,0.00,,,0.00,open2300-1.11,2013-04-30 12:27:00,
2013-04-30 15:32:00,84.7,50.0,28.85,NE,45,4.5,4.7,30,0.00,,,0.00,open2300-1.11,2013-04-30 12:32:00,
2013-04-30 15:42:00,84.9,50.1,28.85,NE,45,0.0,11.0,30,0.00,,,0.00,open2300-1.11,2013-04-30 12:42:00,
2013-04-30 15:47:00,85.1,50.3,28.85,NNE,22,0.0,0.0,30,0.00,,,0.00,open2300-1.11,2013-04-30 12:47:00,
2013-04-30 15:52:00,85.6,50.8,28.85,NNE,22,0.0,12.5,30,0.00,,,0.00,open2300-1.11,2013-04-30 12:52:00,
2013-04-30 15:57:00,85.8,49.8,28.85,NE,45,19.9,19.9,29,0.00,,,0.00,open2300-1.11,2013-04-30 12:57:00,
2013-04-30 16:07:00,86.5,50.4,28.85,NNE,22,3.8,3.8,29,0.00,,,0.00,open2300-1.11,2013-04-30 13:07:00,
2013-04-30 16:12:00,86.9,50.7,28.85,NW,315,0.0,3.8,29,0.00,,,0.00,open2300-1.11,2013-04-30 13:12:00,
2013-04-30 16:17:00,87.1,50.9,28.84,NNE,22,0.0,0.0,29,0.00,,,0.00,open2300-1.11,2013-04-30 13:17:00,
2013-04-30 16:22:00,87.6,50.2,28.83,NNE,22,0.0,0.0,28,0.00,,,0.00,open2300-1.11,2013-04-30 13:22:00,
2013-04-30 16:28:00,87.6,50.2,28.84,NE,45,0.0,0.0,28,0.00,,,0.00,open2300-1.11,2013-04-30 13:28:00,
2013-04-30 16:37:00,88.2,50.7,28.83,NNE,22,0.0,11.0,28,0.00,,,0.00,open2300-1.11,2013-04-30 13:37:00,
2013-04-30 16:42:00,88.3,50.9,28.84,NNE,22,0.0,1.6,28,0.00,,,0.00,open2300-1.11,2013-04-30 13:42:00,
2013-04-30 16:52:00,88.2,49.6,28.83,NNE,22,0.0,6.3,27,0.00,,,0.00,open2300-1.11,2013-04-30 13:52:00,
2013-04-30 16:57:00,88.2,49.6,28.83,North,0,0.0,11.2,27,0.00,,,0.00,open2300-1.11,2013-04-30 13:57:00,
2013-04-30 17:07:00,87.6,49.2,28.83,NE,45,0.0,4.0,27,0.00,,,0.00,open2300-1.11,2013-04-30 14:07:00,
2013-04-30 17:12:00,87.6,50.2,28.83,NE,45,0.0,0.0,28,0.00,,,0.00,open2300-1.11,2013-04-30 14:12:00,
2013-04-30 17:17:00,87.8,50.4,28.83,ENE,67,0.0,0.0,28,0.00,,,0.00,open2300-1.11,2013-04-30 14:17:00,
2013-04-30 17:27:00,88.3,50.9,28.82,NNE,22,0.0,11.9,28,0.00,,,0.00,open2300-1.11,2013-04-30 14:27:00,
2013-04-30 17:32:00,88.3,49.8,28.82,NNE,22,2.0,2.0,27,0.00,,,0.00,open2300-1.11,2013-04-30 14:32:00,
2013-04-30 17:42:00,88.7,50.1,28.82,NNE,22,0.0,0.0,27,0.00,,,0.00,open2300-1.11,2013-04-30 14:42:00,
2013-04-30 17:49:00,88.9,50.3,28.82,NNE,22,0.0,0.0,27,0.00,,,0.00,open2300-1.11,2013-04-30 14:49:00,
2013-04-30 17:57:00,88.9,50.3,28.82,NE,45,6.0,6.0,27,0.00,,,0.00,open2300-1.11,2013-04-30 14:57:00,
2013-04-30 18:02:00,88.5,48.9,28.82,NNE,22,0.0,6.0,26,0.00,,,0.00,open2300-1.11,2013-04-30 15:02:00,
2013-04-30 18:07:00,88.7,49.0,28.82,NNE,22,0.0,0.9,26,0.00,,,0.00,open2300-1.11,2013-04-30 15:07:00,
2013-04-30 18:17:00,88.7,49.0,28.82,North,0,0.0,4.2,26,0.00,,,0.00,open2300-1.11,2013-04-30 15:17:00,
2013-04-30 18:23:00,88.5,48.9,28.82,NE,45,0.0,3.6,26,0.00,,,0.00,open2300-1.11,2013-04-30 15:23:00,
2013-04-30 18:32:00,88.3,48.7,28.82,NE,45,3.1,5.8,26,0.00,,,0.00,open2300-1.11,2013-04-30 15:32:00,
2013-04-30 18:42:00,88.3,48.7,28.82,NNE,22,1.6,1.6,26,0.00,,,0.00,open2300-1.11,2013-04-30 15:42:00,
2013-04-30 18:47:00,88.0,48.4,28.82,North,0,0.0,1.6,26,0.00,,,0.00,open2300-1.11,2013-04-30 15:47:00,
2013-04-30 18:57:00,87.6,48.1,28.82,NNE,22,2.7,3.1,26,0.00,,,0.00,open2300-1.11,2013-04-30 15:57:00,
2013-04-30 19:02:00,87.4,48.0,28.82,NE,45,0.0,2.7,26,0.00,,,0.00,open2300-1.11,2013-04-30 16:02:00,
2013-04-30 19:13:00,86.9,46.4,28.82,North,0,10.5,10.5,25,0.00,,,0.00,open2300-1.11,2013-04-30 16:13:00,
2013-04-30 19:22:00,85.6,45.4,28.83,NNE,22,0.0,3.4,25,0.00,,,0.00,open2300-1.11,2013-04-30 16:22:00,
2013-04-30 19:27:00,84.9,45.8,28.83,NE,45,0.0,0.0,26,0.00,,,0.00,open2300-1.11,2013-04-30 16:27:00,
2013-04-30 19:37:00,83.3,44.4,28.83,NNE,22,0.0,0.0,26,0.00,,,0.00,open2300-1.11,2013-04-30 16:37:00,
2013-04-30 19:47:00,82.4,44.7,28.83,NNE,22,1.8,5.1,27,0.00,,,0.00,open2300-1.11,2013-04-30 16:47:00,
2013-04-30 19:52:00,81.9,44.3,28.83,NE,45,1.1,2.0,27,0.00,,,0.00,open2300-1.11,2013-04-30 16:52:00,
2013-04-30 19:57:00,81.3,44.9,28.83,NNE,22,0.0,1.1,28,0.00,,,0.00,open2300-1.11,2013-04-30 16:57:00,
2013-04-30 20:02:00,81.1,44.7,28.83,NNE,22,0.0,0.0,28,0.00,,,0.00,open2300-1.11,2013-04-30 17:02:00,
2013-04-30 20:12:00,80.4,44.2,28.84,NE,45,0.0,0.0,28,0.00,,,0.00,open2300-1.11,2013-04-30 17:12:00,
2013-04-30 20:17:00,80.1,43.8,28.83,NE,45,0.0,0.0,28,0.00,,,0.00,open2300-1.11,2013-04-30 17:17:00,
2013-04-30 20:23:00,79.5,44.4,28.84,NE,45,2.2,2.2,29,0.00,,,0.00,open2300-1.11,2013-04-30 17:23:00,
2013-04-30 20:32:00,79.0,43.9,28.84,NNE,22,0.0,4.5,29,0.00,,,0.00,open2300-1.11,2013-04-30 17:32:00,
2013-04-30 20:42:00,78.6,44.6,28.84,NNE,22,0.0,0.0,30,0.00,,,0.00,open2300-1.11,2013-04-30 17:42:00,
2013-04-30 20:47:00,78.4,44.5,28.84,NNE,22,0.0,0.0,30,0.00,,,0.00,open2300-1.11,2013-04-30 17:47:00,
2013-04-30 20:52:00,78.1,44.2,28.84,NNE,22,0.0,0.0,30,0.00,,,0.00,open2300-1.11,2013-04-30 17:52:00,
2013-04-30 21:02:00,77.7,44.7,28.84,NNE,22,0.0,0.0,31,0.00,,,0.00,open2300-1.11,2013-04-30 18:02:00,
2013-04-30 21:07:00,77.5,44.5,28.84,NNE,22,0.0,0.0,31,0.00,,,0.00,open2300-1.11,2013-04-30 18:07:00,
2013-04-30 21:12:00,77.4,44.4,28.85,NNE,22,0.0,0.0,31,0.00,,,0.00,open2300-1.11,2013-04-30 18:12:00,
2013-04-30 21:17:00,77.4,44.4,28.85,NNE,22,0.0,0.0,31,0.00,,,0.00,open2300-1.11,2013-04-30 18:17:00,
2013-04-30 21:22:00,77.2,44.2,28.84,NNE,22,0.0,0.0,31,0.00,,,0.00,open2300-1.11,2013-04-30 18:22:00,
2013-04-30 21:32:00,76.8,44.7,28.84,NNE,22,0.0,0.0,32,0.00,,,0.00,open2300-1.11,2013-04-30 18:32:00,
2013-04-30 21:42:00,76.8,44.7,28.84,NNE,22,0.0,0.0,32,0.00,,,0.00,open2300-1.11,2013-04-30 18:42:00,
2013-04-30 21:47:00,76.6,44.5,28.84,NNE,22,0.0,0.0,32,0.00,,,0.00,open2300-1.11,2013-04-30 18:47:00,
2013-04-30 21:57:00,76.3,44.2,28.85,NNE,22,0.0,0.0,32,0.00,,,0.00,open2300-1.11,2013-04-30 18:57:00,
2013-04-30 22:07:00,76.1,44.0,28.84,NNE,22,0.0,0.0,32,0.00,,,0.00,open2300-1.11,2013-04-30 19:07:00,
2013-04-30 22:18:00,75.7,44.6,28.85,NNE,22,0.0,0.0,33,0.00,,,0.00,open2300-1.11,2013-04-30 19:18:00,
2013-04-30 22:27:00,75.7,44.5,28.85,NNE,22,0.0,0.0,33,0.00,,,0.00,open2300-1.11,2013-04-30 19:27:00,
2013-04-30 22:37:00,75.6,45.1,28.85,NNE,22,0.0,0.0,34,0.00,,,0.00,open2300-1.11,2013-04-30 19:37:00,
2013-04-30 22:47:00,75.2,44.7,28.85,NNE,22,0.0,0.0,34,0.00,,,0.00,open2300-1.11,2013-04-30 19:47:00,
2013-04-30 22:52:00,75.0,44.6,28.85,NNE,22,0.0,0.0,34,0.00,,,0.00,open2300-1.11,2013-04-30 19:52:00,
2013-04-30 23:02:00,75.0,44.6,28.85,NNE,22,0.0,0.0,34,0.00,,,0.00,open2300-1.11,2013-04-30 20:02:00,
2013-04-30 23:12:00,74.8,44.4,28.85,NNE,22,0.0,0.0,34,0.00,,,0.00,open2300-1.11,2013-04-30 20:12:00,
2013-04-30 23:17:00,74.8,45.2,28.85,NNE,22,0.0,0.0,35,0.00,,,0.00,open2300-1.11,2013-04-30 20:17:00,
2013-04-30 23:27:00,74.8,45.9,28.85,NNE,22,0.0,0.0,36,0.00,,,0.00,open2300-1.11,2013-04-30 20:27:00,
2013-04-30 23:32:00,74.7,45.8,28.85,NNE,22,0.0,0.0,36,0.00,,,0.00,open2300-1.11,2013-04-30 20:32:00,
2013-04-30 23:37:00,74.7,45.8,28.85,NNE,22,0.0,0.0,36,0.00,,,0.00,open2300-1.11,2013-04-30 20:37:00,
2013-04-30 23:42:00,74.5,45.6,28.85,NNE,22,0.0,0.0,36,0.00,,,0.00,open2300-1.11,2013-04-30 20:42:00,
2013-04-30 23:52:00,74.3,46.2,28.85,NNE,22,0.0,0.0,37,0.00,,,0.00,open2300-1.11,2013-04-30 20:52:00,
2013-04-30 23:57:00,74.3,46.2,28.85,NNE,22,0.0,0.0,37,0.00,,,0.00,open2300-1.11,2013-04-30 20:57:00,